When you browse on this site, cookies collect data to enhance your experience and personalize the content and advertising you see.
Visit our Privacy Policy to learn more. By continuing to use the site, you agree to this use of cookies and data.
  • In Österreich
  • Länderverzeichnis
  • Für 7 Tage
  • Wassertemperatur
  • Satellitenkarten
  • Wetterkarte
  • News
  • Widgets
  • user-avatar
    Anmelden

    Stündliche Wetter Rotorua

    Heute, 19 Februar, Dienstag

    Zeit Temperatur Niederschläge Wind Luftdruck Luftfeuchtigkeit
    00:00 +12°C° 0 mm 1 m/S 725 mmHg 93%
    01:00 +12°C° 0 mm 1 m/S 725 mmHg 95%
    02:00 +11°C° 0 mm 1 m/S 725 mmHg 96%
    03:00 +11°C° 0 mm 1 m/S 725 mmHg 97%
    04:00 +11°C° 0 mm 1 m/S 725 mmHg 97%
    05:00 +10°C° 0 mm 0 m/S 725 mmHg 97%
    06:00 +11°C° 0 mm 1 m/S 725 mmHg 97%
    07:00 +13°C° 0 mm 0 m/S 725 mmHg 83%
    08:00 +17°C° 0 mm 0 m/S 726 mmHg 69%
    09:00 +20°C° 0 mm 0 m/S 726 mmHg 55%
    10:00 +22°C° 0 mm 0 m/S 726 mmHg 47%
    11:00 +26°C° 0 mm 1 m/S 726 mmHg 40%
    12:00 +28°C° 0 mm 1 m/S 726 mmHg 33%
    13:00 +28°C° 0 mm 1 m/S 726 mmHg 33%
    14:00 +29°C° 0 mm 2 m/S 725 mmHg 33%
    15:00 +29°C° 0 mm 2 m/S 725 mmHg 33%
    16:00 +27°C° 0 mm 2 m/S 725 mmHg 39%
    17:00 +26°C° 0 mm 2 m/S 725 mmHg 46%
    18:00 +24°C° 0 mm 2 m/S 725 mmHg 52%
    19:00 +21°C° 0 mm 2 m/S 725 mmHg 66%
    20:00 +19°C° 0 mm 1 m/S 725 mmHg 80%
    21:00 +16°C° 0 mm 1 m/S 725 mmHg 94%
    22:00 +14°C° 0 mm 0 m/S 725 mmHg 96%
    23:00 +14°C° 0 mm 0 m/S 726 mmHg 97%

    Morgen, 20 Februar, Mittwoch

    Zeit Temperatur Niederschläge Wind Luftdruck Luftfeuchtigkeit
    00:00 +13°C° 0 mm 0 m/S 726 mmHg 99%
    01:00 +13°C° 0 mm 0 m/S 726 mmHg 99%
    02:00 +13°C° 0 mm 0 m/S 726 mmHg 99%
    03:00 +12°C° 0 mm 0 m/S 725 mmHg 99%
    04:00 +12°C° 0 mm 0 m/S 725 mmHg 99%
    05:00 +12°C° 0 mm 0 m/S 725 mmHg 99%
    06:00 +12°C° 0 mm 0 m/S 725 mmHg 99%
    07:00 +15°C° 0 mm 0 m/S 726 mmHg 85%
    08:00 +18°C° 0 mm 0 m/S 726 mmHg 71%
    09:00 +21°C° 0 mm 0 m/S 727 mmHg 57%
    10:00 +25°C° 0 mm 1 m/S 727 mmHg 51%
    11:00 +26°C° 0 mm 1 m/S 727 mmHg 45%
    12:00 +27°C° 0 mm 2 m/S 727 mmHg 38%
    13:00 +28°C° 0 mm 2 m/S 727 mmHg 37%
    14:00 +28°C° 0 mm 2 m/S 726 mmHg 36%
    15:00 +29°C° 0 mm 2 m/S 726 mmHg 35%
    16:00 +28°C° 0 mm 2 m/S 726 mmHg 41%
    17:00 +27°C° 0 mm 2 m/S 726 mmHg 46%
    18:00 +25°C° 0 mm 2 m/S 726 mmHg 52%
    19:00 +23°C° 0 mm 1 m/S 727 mmHg 67%
    20:00 +20°C° 0 mm 1 m/S 727 mmHg 81%
    21:00 +16°C° 0 mm 0 m/S 727 mmHg 96%
    22:00 +16°C° 0 mm 0 m/S 727 mmHg 97%
    23:00 +16°C° 0 mm 0 m/S 728 mmHg 98%

    übermorgen, 21 Februar, Donnerstag

    Zeit Temperatur Niederschläge Wind Luftdruck Luftfeuchtigkeit
    00:00 +16°C° 0 mm 0 m/S 728 mmHg 99%
    01:00 +16°C° 0 mm 0 m/S 728 mmHg 99%
    02:00 +16°C° 0 mm 0 m/S 728 mmHg 99%
    03:00 +16°C° 0 mm 0 m/S 728 mmHg 99%
    04:00 +16°C° 0 mm 0 m/S 728 mmHg 99%
    05:00 +16°C° 0 mm 0 m/S 728 mmHg 99%
    06:00 +16°C° 0 mm 0 m/S 728 mmHg 99%
    07:00 +18°C° 0.1 mm 0 m/S 728 mmHg 92%
    08:00 +21°C° 0.1 mm 1 m/S 729 mmHg 86%
    09:00 +23°C° 0.1 mm 1 m/S 729 mmHg 80%
    10:00 +23°C° 1.2 mm 1 m/S 729 mmHg 84%
    11:00 +23°C° 1.2 mm 1 m/S 729 mmHg 89%
    12:00 +23°C° 1.2 mm 2 m/S 729 mmHg 94%
    13:00 +23°C° 1.1 mm 2 m/S 729 mmHg 93%
    14:00 +23°C° 1.1 mm 2 m/S 728 mmHg 93%
    15:00 +21°C° 1.1 mm 2 m/S 728 mmHg 93%
    16:00 +21°C° 0.5 mm 2 m/S 728 mmHg 91%
    17:00 +21°C° 0.5 mm 2 m/S 728 mmHg 88%
    18:00 +22°C° 0.5 mm 1 m/S 728 mmHg 86%
    19:00 +21°C° 0 mm 1 m/S 728 mmHg 90%
    20:00 +19°C° 0 mm 1 m/S 729 mmHg 95%
    21:00 +18°C° 0 mm 1 m/S 729 mmHg 99%
    22:00 +18°C° 0.1 mm 1 m/S 729 mmHg 99%
    23:00 +18°C° 0.1 mm 1 m/S 729 mmHg 99%

    22 Februar, Freitag

    Zeit Temperatur Niederschläge Wind Luftdruck Luftfeuchtigkeit
    00:00 +18°C° 0.1 mm 1 m/S 729 mmHg 99%
    01:00 +16°C° 0.1 mm 0 m/S 728 mmHg 99%
    02:00 +16°C° 0.1 mm 0 m/S 728 mmHg 99%
    03:00 +16°C° 0.1 mm 0 m/S 728 mmHg 99%
    04:00 +16°C° 0 mm 0 m/S 728 mmHg 99%
    05:00 +16°C° 0 mm 0 m/S 728 mmHg 99%
    06:00 +16°C° 0 mm 0 m/S 727 mmHg 99%
    07:00 +17°C° 0 mm 0 m/S 728 mmHg 96%
    08:00 +19°C° 0 mm 1 m/S 728 mmHg 94%
    09:00 +20°C° 0 mm 1 m/S 728 mmHg 91%
    10:00 +22°C° 0.1 mm 1 m/S 728 mmHg 80%
    11:00 +23°C° 0.1 mm 2 m/S 728 mmHg 70%
    12:00 +24°C° 0.1 mm 2 m/S 728 mmHg 60%
    13:00 +24°C° 0.2 mm 2 m/S 727 mmHg 63%
    14:00 +24°C° 0.2 mm 2 m/S 727 mmHg 67%
    15:00 +24°C° 0.2 mm 2 m/S 726 mmHg 70%
    16:00 +23°C° 0.4 mm 2 m/S 726 mmHg 77%
    17:00 +21°C° 0.4 mm 2 m/S 726 mmHg 84%
    18:00 +21°C° 0.4 mm 1 m/S 726 mmHg 91%
    19:00 +20°C° 0.3 mm 1 m/S 726 mmHg 93%
    20:00 +19°C° 0.3 mm 1 m/S 726 mmHg 96%
    21:00 +16°C° 0.3 mm 0 m/S 726 mmHg 98%
    22:00 +16°C° 0.1 mm 0 m/S 726 mmHg 98%
    23:00 +16°C° 0.1 mm 0 m/S 726 mmHg 98%

    23 Februar, Samstag

    Zeit Temperatur Niederschläge Wind Luftdruck Luftfeuchtigkeit
    00:00 +16°C° 0.1 mm 0 m/S 726 mmHg 98%
    01:00 +15°C° 0 mm 0 m/S 725 mmHg 98%
    02:00 +15°C° 0 mm 0 m/S 725 mmHg 98%
    03:00 +15°C° 0 mm 0 m/S 724 mmHg 98%
    04:00 +15°C° 0 mm 0 m/S 724 mmHg 99%
    05:00 +15°C° 0 mm 0 m/S 724 mmHg 99%
    06:00 +15°C° 0 mm 0 m/S 724 mmHg 99%
    07:00 +15°C° 0.1 mm 0 m/S 724 mmHg 98%
    08:00 +16°C° 0.1 mm 0 m/S 724 mmHg 97%
    09:00 +17°C° 0.1 mm 0 m/S 724 mmHg 96%
    10:00 +18°C° 0.3 mm 0 m/S 724 mmHg 93%
    11:00 +21°C° 0.3 mm 1 m/S 724 mmHg 90%
    12:00 +21°C° 0.3 mm 1 m/S 723 mmHg 87%
    13:00 +21°C° 0.8 mm 1 m/S 723 mmHg 90%
    14:00 +21°C° 0.8 mm 1 m/S 722 mmHg 92%
    15:00 +19°C° 0.8 mm 2 m/S 721 mmHg 95%
    16:00 +20°C° 0.2 mm 1 m/S 721 mmHg 92%
    17:00 +20°C° 0.2 mm 1 m/S 720 mmHg 90%
    18:00 +20°C° 0.2 mm 1 m/S 720 mmHg 88%
    19:00 +18°C° 0 mm 1 m/S 719 mmHg 91%
    20:00 +16°C° 0 mm 1 m/S 719 mmHg 94%
    21:00 +15°C° 0 mm 1 m/S 719 mmHg 98%
    22:00 +15°C° 0 mm 1 m/S 718 mmHg 98%
    23:00 +16°C° 0 mm 1 m/S 717 mmHg 98%

    24 Februar, Sonntag

    Zeit Temperatur Niederschläge Wind Luftdruck Luftfeuchtigkeit
    00:00 +16°C° 0 mm 1 m/S 717 mmHg 98%
    01:00 +16°C° 0 mm 1 m/S 716 mmHg 99%
    02:00 +16°C° 0 mm 1 m/S 715 mmHg 99%
    03:00 +16°C° 0 mm 1 m/S 714 mmHg 99%
    04:00 +15°C° 0.1 mm 2 m/S 713 mmHg 98%
    05:00 +15°C° 0.1 mm 2 m/S 713 mmHg 98%
    06:00 +14°C° 0.1 mm 2 m/S 712 mmHg 97%
    07:00 +13°C° 0.2 mm 3 m/S 712 mmHg 96%
    08:00 +13°C° 0.2 mm 3 m/S 712 mmHg 94%
    09:00 +13°C° 0.2 mm 4 m/S 712 mmHg 92%
    10:00 +15°C° 0.1 mm 4 m/S 712 mmHg 74%
    11:00 +18°C° 0.1 mm 4 m/S 712 mmHg 56%
    12:00 +19°C° 0.1 mm 5 m/S 712 mmHg 37%
    13:00 +19°C° 0 mm 5 m/S 712 mmHg 41%
    14:00 +17°C° 0 mm 5 m/S 711 mmHg 44%
    15:00 +17°C° 0 mm 5 m/S 711 mmHg 48%
    16:00 +16°C° 0.1 mm 5 m/S 711 mmHg 54%
    17:00 +14°C° 0.1 mm 4 m/S 711 mmHg 60%
    18:00 +13°C° 0.1 mm 4 m/S 711 mmHg 67%
    19:00 +12°C° 0 mm 3 m/S 711 mmHg 72%
    20:00 +11°C° 0 mm 3 m/S 711 mmHg 77%
    21:00 +12°C° 0 mm 2 m/S 711 mmHg 82%
    22:00 +10°C° 0 mm 2 m/S 711 mmHg 82%
    23:00 +10°C° 0 mm 3 m/S 711 mmHg 82%
    Mehr zeigen